Indianapolis, IN

5:06 PM EDT on June 25, 2017 (GMT -0400)
Indianapolis International

Weather History for KIND - February, 2015

Change the Weather History Date:

Monday, February 9, 2015

  Actual Average Record
Temperature  
Mean Temperature 31 °F 30 °F  
Max Temperature 36 °F 38 °F 66 °F (1943)
Min Temperature 26 °F 22 °F -18 °F (1899)
Degree Days  
Heating Degree Days 34 35  
Month to date heating degree days 320 319  
Since 1 July heating degree days 3797 3540  
Cooling Degree Days 0 0  
Month to date cooling degree days 0 0  
Year to date cooling degree days 0 0  
Moisture  
Dew Point 25 °F    
Average Humidity 86    
Maximum Humidity 96    
Minimum Humidity 75    
Precipitation  
Precipitation T in 0.08 in 2.04 in (1881)
Month to date precipitation 0.37 0.73  
Year to date precipitation 2.18 3.39  
Snow  
Snow T in 0.20 in 3.90 in (1962)
Month to date snowfall 2.6 2.4  
Since 1 July snowfall 8.5 19.0  
Snow Depth 0.00 in    
Sea Level Pressure  
Sea Level Pressure 30.02 in    
Wind  
Wind Speed 12 mph (North)    
Max Wind Speed 17 mph    
Max Gust Speed 21 mph    
Visibility 6 miles    
Events Rain    
T = Trace of Precipitation, MM = Missing Value Source: NWS Daily Summary

Daily Weather History Graph

Daily Weather History Graph

Search for Another Location

Airport or City:

Trip Planner

Search our weather history database for the weather conditions in past years. The results will help you decide how hot, cold, wet, or windy it might be!

Date:

Astronomy

Feb. 09, 2015 Rise Set
Actual Time 7:45 AM EST 6:14 PM EST
Civil Twilight 7:17 AM EST 6:42 PM EST
Nautical Twilight 6:45 AM EST 7:14 PM EST
Astronomical Twilight 6:13 AM EST 7:45 PM EST
Moon 11:47 PM EST (2/9) 10:24 AM EST (2/9)
Length of Visible Light 11h 25m
Length of Day
10h 29m
Waning Gibbous, 73% of the Moon is Illuminated
Feb 9
Waning Gibbous
Feb 11
Last Quarter
Feb 18
New
Feb 25
First Quarter
Mar 5
Full

Hourly Weather History & Observations

Time (EST) Temp. Windchill Dew Point Humidity Pressure Visibility Wind Dir Wind Speed Gust Speed Precip Events Conditions
12:54 AM 35.1 °F 27.9 °F 32.0 °F 89% 29.86 in 2.5 mi NNW 9.2 mph - N/A   Overcast
1:15 AM 35.1 °F 26.9 °F 32.0 °F 89% 29.85 in 2.0 mi NNW 11.5 mph - N/A   Overcast
1:54 AM 35.1 °F 26.4 °F 32.0 °F 89% 29.87 in 2.0 mi North 12.7 mph - N/A   Overcast
2:18 AM 35.1 °F 26.9 °F 32.0 °F 89% 29.86 in 1.8 mi North 11.5 mph - N/A   Overcast
2:54 AM 34.0 °F 25.0 °F 32.0 °F 92% 29.88 in 1.2 mi North 12.7 mph - N/A   Overcast
3:37 AM 34.0 °F 25.5 °F 30.9 °F 89% 29.88 in 2.0 mi North 11.5 mph - 0.00 in   Light Drizzle
3:54 AM 33.8 °F 24.8 °F 30.2 °F 87% 29.89 in 2.0 mi North 12.7 mph - N/A   Light Drizzle
4:16 AM 33.1 °F 23.0 °F 30.0 °F 89% 29.88 in 3.0 mi North 15.0 mph - 0.00 in   Light Drizzle
4:54 AM 32.0 °F 22.1 °F 28.9 °F 88% 29.91 in 5.0 mi North 13.8 mph - 0.00 in   Light Drizzle
5:54 AM 30.9 °F 20.7 °F 28.0 °F 89% 29.94 in 6.0 mi North 13.8 mph - 0.00 in   Light Freezing Rain
6:25 AM 30.9 °F 21.7 °F 28.0 °F 89% 29.94 in 4.0 mi North 11.5 mph - 0.00 in   Light Freezing Drizzle
6:54 AM 30.0 °F 19.5 °F 27.0 °F 88% 29.97 in 6.0 mi North 13.8 mph - 0.00 in   Light Freezing Drizzle
7:30 AM 28.9 °F 18.2 °F 26.1 °F 89% 29.97 in 6.0 mi North 13.8 mph - 0.00 in   Overcast
7:54 AM 28.9 °F 17.3 °F 26.1 °F 89% 30.00 in 5.0 mi North 16.1 mph - 0.00 in   Overcast
8:52 AM 28.4 °F 18.0 °F 24.8 °F 86% 30.00 in 5.0 mi North 12.7 mph - 0.00 in   Light Freezing Drizzle
8:54 AM 28.0 °F 17.0 °F 25.0 °F 88% 30.02 in 5.0 mi North 13.8 mph - 0.00 in   Light Freezing Drizzle
9:49 AM 28.4 °F 17.0 °F 24.8 °F 86% 30.02 in 6.0 mi North 15.0 mph - 0.00 in   Overcast
9:54 AM 28.0 °F 17.0 °F 24.1 °F 85% 30.04 in 6.0 mi North 13.8 mph - 0.00 in   Overcast
10:54 AM 28.0 °F 17.0 °F 24.1 °F 85% 30.05 in 7.0 mi North 13.8 mph - N/A   Overcast
11:54 AM 27.0 °F 16.1 °F 24.1 °F 89% 30.08 in 7.0 mi North 12.7 mph - N/A   Overcast
12:54 PM 27.0 °F 16.7 °F 23.0 °F 85% 30.08 in 7.0 mi North 11.5 mph - N/A   Overcast
1:54 PM 27.0 °F 15.6 °F 21.9 °F 81% 30.07 in 8.0 mi North 13.8 mph - N/A   Overcast
2:15 PM 27.0 °F 15.2 °F 21.9 °F 81% 30.04 in 9.0 mi North 15.0 mph 20.7 mph N/A   Overcast
2:54 PM 27.0 °F 15.6 °F 21.9 °F 81% 30.08 in 7.0 mi North 13.8 mph - N/A   Overcast
3:54 PM 27.0 °F 16.1 °F 21.0 °F 78% 30.08 in 8.0 mi North 12.7 mph - N/A   Overcast
4:54 PM 27.0 °F 15.6 °F 21.0 °F 78% 30.09 in 9.0 mi North 13.8 mph - N/A   Overcast
5:54 PM 27.0 °F 16.1 °F 21.0 °F 78% 30.12 in 8.0 mi North 12.7 mph - N/A   Overcast
6:54 PM 26.1 °F 15.0 °F 21.0 °F 81% 30.14 in 9.0 mi North 12.7 mph - N/A   Overcast
7:54 PM 26.1 °F 18.4 °F 21.0 °F 81% 30.16 in 8.0 mi North 6.9 mph - N/A   Overcast
8:54 PM 27.0 °F 18.0 °F 21.0 °F 78% 30.18 in 8.0 mi North 9.2 mph - N/A   Overcast
9:54 PM 27.0 °F 16.1 °F 21.0 °F 78% 30.19 in 7.0 mi North 12.7 mph - N/A   Overcast
10:54 PM 26.1 °F 16.8 °F 19.9 °F 78% 30.19 in 9.0 mi North 9.2 mph - N/A   Overcast
11:54 PM 26.1 °F 16.8 °F 19.9 °F 78% 30.20 in 9.0 mi North 9.2 mph - N/A   Overcast